www.pogodaiklimat.ru

Погода и климат >> Архив погоды >> Аргентина >> San Ramon de la Nueva Oran


ПОГОДА в San Ramon de la Nueva Oran

  • Прогноз погоды в San Ramon de la Nueva Oran
  • Монитор погоды в San Ramon de la Nueva Oran
  • Климат города

АРХИВ ПОГОДЫ в San Ramon de la Nueva Oran

Время (UTC), дата Ветер
(напр.,м/с)
 
Видим.   Явления Облачность Т
(С)
Тd
(С)
f
(%)
Тe
(С)
Тes
(С)
Комфортность P
(гПа)
Po
(гПа)
Тmin
(С)
Tmax
(С)
R
(мм)
R24
(мм)
S
(см)
00 15.02 В 3 10 км 9/4 600 м
[Sc Cs]
+24.2 +22.7 91 +32 +32 очень
душно
1012.0 971.4 +21.2 +29.8
03 15.02 СВ 3 10 км 9/6 600 м
[Sc Cs]
+24.0 +21.6 86 +31 +31 очень
душно
1012.9 972.6
06 15.02 СЗ 1 10 км 9/4 600 м
[Sc Cs]
+23.6 +21.5 88 +30 +30 очень
душно
1012.3 972.2
09 15.02 Ю 1 10 км 9/3 600 м
[Sc Ac As Cs]
+22.8 +21.6 93 +30 +30 очень
душно
1012.1 971.8
12 15.02 штиль 0 12 км 8/3 600 м
[Sc Ac und Cs]
+24.3 +21.8 86 +31 +34 очень
душно
1013.7 973.2 +22.3 +24.6
15 15.02 штиль 0 12 км 8/3 600 м
[Cu hum Ac und Cs]
+28.6 +21.2 64 +36 +48 очень
душно
1012.6 972.4
18 15.02 штиль 0 12 км 8/4 600 м
[Cu hum Cs]
+30.6 +21.5 58 +39 +51 опасность
солнечного
удара
1010.0 970.0
21 15.02 штиль 0 12 км 8/4 600 м
[Cu med, cong Cs]
+30.4 +20.8 57 +38 +40 очень
душно
1008.0 968.1
00 16.02 штиль 0 10 км зарница 8/5 600 м
[Cb calv Ac As]
+27.0 +24.1 84 +37 +37 очень
душно
1010.4 970.2 +24.3 +31.8
03 16.02 Ю 3 10 км 10/6 600 м
[Sc Ac As]
+25.6 +22.8 85 +34 +34 очень
душно
1011.2 971.2
06 16.02 З 3 10 км в посл. час морось 10/10 240 м
[Frnb]
+24.4 +22.6 90 +32 +32 очень
душно
1011.1 971.2 0.0
09 16.02 СЗ 1 10 км 10/6 600 м
[Sc Ac As]
+23.4 +22.1 92 +32 +32 очень
душно
1010.5 970.5
12 16.02 СЗ 3 10 км 6/1 600 м
[Cu hum Ac und Cs]
+25.1 +22.3 84 +33 +36 очень
душно
1013.2 973.0 +22.6 +27.0 0.0
15 16.02 СЗ 1 10 км 4/1 600 м
[Cu hum Ac und Cs]
+29.5 +21.6 63 +38 +55 опасность
солнечного
удара
1012.2 972.2
18 16.02 С 4 10 км 4/3 600 м
[Cu med, cong Ci sp]
+32.3 +22.2 55 +41 +49 опасность
перегрева
1009.5 969.7
21 16.02 В 3 10 км 5/3 600 м
[Cu hum Cs]
+33.3 +22.7 54 +43 +45 опасность
перегрева
1006.3 966.6
00 17.02 В 3 10 км 1/1 600 м
[Cu med, cong Cs]
+28.4 +24.0 77 +39 +39 очень
душно
1008.0 968.1 +25.1 +33.6
03 17.02 Ю 4 4000 м гроза, ливневой дождь 10/10 240 м
[Cb cap As op]
+26.0 +23.5 86 +35 +35 очень
душно
1010.4 970.5
06 17.02 В 4 10 км в посл. час гроза 8/8 450 м
[Cu Sc]
+22.3 +18.7 80 +28 +28 душно 1008.3 968.4 0.8
09 17.02 ЮЗ 3 10 км 1/1 600 м
[Sc]
+20.4 +18.8 91 +25 +25 комфорт 1009.7 969.7
12 17.02 З 3 10 км 8/5 600 м
[Sc Ac und]
+22.0 +19.7 87 +28 +29 душно 1012.4 972.1 +20.3 +28.4 0.8
15 17.02 С 3 10 км 5/3 600 м
[Cu hum Ac und]
+26.0 +19.1 66 +31 +41 очень
душно
1011.1 971.0
18 17.02 штиль 0 10 км 5/4 600 м
[Cb calv Cs]
+30.5 +19.5 52 +36 +50 очень
душно
1006.7 966.8
21 17.02 ЮВ 3 10 км 9/6 600 м
[Cb cap Ac und]
+29.6 +22.3 65 +39 +39 очень
душно
1006.0 965.8
00 18.02 штиль 0 6000 м гроза без осадков 10/5 450 м
[Cb cap Ac As]
+22.2 +20.1 88 +28 +28 душно 1009.9 969.3 +21.8 +32.5
03 18.02 штиль 0 10 км гроза без осадков 6/6 600 м
[Cb cap]
+21.9 +18.6 82 +27 +27 душно 1009.9 969.4
06 18.02 штиль 0 10 км {гроза} 8/8 600 м
[Sc]
+21.8 +20.0 90 +27 +27 душно 1007.4 967.4
09 18.02 штиль 0 10 км 6/6 300 м
[St]
+21.2 +20.3 95 +26 +26 душно 1006.3 966.2
12 18.02 С 4 10 км 6/4 600 м
[Sc Ac und]
+21.1 +20.0 93 +26 +27 душно 1005.7 965.2 +20.5 +22.6
15 18.02 ЮВ 4 10 км 3/3 600 м
[Cu hum]
+27.4 +21.0 68 +34 +43 очень
душно
1003.3 963.3
18 18.02 В 4 10 км 5/5 600 м
[Cu hum]
+30.4 +20.9 57 +38 +44 очень
душно
1000.2 960.5
21 18.02 ЮВ 3 10 км 3/3 600 м
[Cu hum]
+29.7 +21.0 60 +37 +39 очень
душно
998.4 958.6
00 19.02 В 3 10 км зарница 4/3 600 м
[Cb calv Cs]
+26.0 +21.5 76 +33 +33 очень
душно
1000.9 960.8 +21.1 +31.4
03 19.02 В 1 10 км зарница 8/8 600 м
[Cb calv]
+24.3 +21.8 86 +31 +31 очень
душно
1002.7 962.9
06 19.02 З 4 10 км зарница 8/8 600 м
[Cb cap]
+23.5 +21.2 87 +30 +30 очень
душно
1000.9 961.3
09 19.02 штиль 0 10 км зарница 3/3 600 м
[Cb cap]
+21.5 +19.8 90 +27 +27 душно 1000.3 960.5
12 19.02 штиль 0 10 км ясно +24.4 +21.7 85 +31 +38 очень
душно
1002.1 962.2 +21.0 +26.0
15 19.02 Ю 3 12 км 1/1 600 м
[Cu hum]
+30.0 +21.3 60 +38 +53 опасность
солнечного
удара
1001.7 962.1
18 19.02 Ю 3 12 км 4/4 600 м
[Cu med, cong]
+33.3 +22.0 52 +42 +52 опасность
перегрева
1000.1 960.6
21 19.02 ЮВ 7 12 км 5/5 600 м
[Cb calv]
+32.0 +20.1 49 +38 +39 очень
душно
999.6 960.0
00 20.02 СЗ 4 10 км зарница 9/6 600 м
[Cb cap Ac und]
+25.8 +19.2 67 +31 +31 очень
душно
1003.2 963.3 +24.4 +34.8
03 20.02 С 4 10 км зарница 9/6 600 м
[Cb cap Ac und]
+22.8 +19.1 80 +29 +29 очень
душно
1005.4 965.4
06 20.02 СЗ 4 10 км 6/4 600 м
[Sc Ac und]
+21.4 +19.2 87 +26 +26 душно 1004.4 964.6
09 20.02 С 3 10 км 6/3 600 м
[Sc Ac und]
+20.3 +18.7 91 +24 +24 комфорт 1004.7 964.8
12 20.02 С 4 10 км 4/4 600 м
[Sc]
+23.0 +19.6 81 +30 +31 очень
душно
1007.6 967.4 +19.9 +25.8
15 20.02 С 3 10 км 1/1 600 м
[Cu hum]
+29.6 +20.7 59 +37 +52 опасность
солнечного
удара
1006.4 966.5
18 20.02 ЮВ 3 10 км 3/3 600 м
[Cu hum]
+32.8 +21.9 53 +41 +52 опасность
перегрева
1003.8 964.1
21 20.02 ЮВ 3 10 км 6/4 600 м
[Cb calv Cs]
+31.6 +19.8 50 +38 +39 очень
душно
1002.7 962.9
00 21.02 З 1 10 км зарница 5/5 600 м
[Cb calv]
+27.8 +23.2 76 +37 +37 очень
душно
1005.2 965.2 +23.0 +33.0
03 21.02 штиль 0 10 км зарница 8/8 600 м
[Cb cap]
+25.9 +22.1 80 +34 +34 очень
душно
1007.7 967.8
06 21.02 С 4 10 км зарница 8/8 600 м
[Cb cap]
+25.3 +22.4 84 +33 +33 очень
душно
1007.9 968.2
09 21.02 ЮВ 3 2000 м слабый ливневой дождь, в посл. час гроза 10/10 210 м
[Frnb Ns]
+22.1 +21.7 98 +29 +29 очень
душно
1010.6 970.6
12 21.02 Ю 7 2000 м слабый дождь {гроза} 10/6 210 м
[Frnb As op]
+18.8 +18.5 98 +20 +20 1016.3 975.6 +18.8 +27.8 27
15 21.02 Ю 3 8000 м в посл. час дождь 9/6 450 м
[Cu Sc Ac As]
+20.4 +19.1 92 +25 +28 комфорт 1018.2 977.4
18 21.02 СЗ 4 10 км {дождь} 9/6 450 м
[Cu Sc Ac und]
+22.3 +18.7 80 +28 +30 душно 1016.0 975.4 6
21 21.02 С 4 10 км 8/3 450 м
[Cu hum Ac und Cs]
+24.4 +17.4 65 +28 +29 душно 1011.9 971.4

 

Местоположение метеостанции San Ramon de la Nueva Oran (Аргентина): широта -23.15 долгота -64.31 высота над уровнем моря 357 м.

В архиве по умолчанию представлена погода в San Ramon de la Nueva Oran за последнюю неделю. Архивные данные за месяц целиком и за предыдущие месяцы, начиная с января 2011 года, Вы можете получить, выбрав интересующий диапазон дат из раскрывающегося списка и нажав кнопку "Ввод!".

Внимание! Время в таблицах - всемирное. Для получения местного времени необходимо прибавить поправку, которая в San Ramon de la Nueva Oran равна -3 ч.

Смотрите также архив погоды в соседних городах и на ближайших метеорологических станциях:

Погода в Bermejo (Боливия) (43 км)
Погода в Tartagal (Аргентина) (79 км)
Погода в Yacuiba (Боливия) (150 км)
Погода в San Salvador de Jujuy (Аргентина) (158 км)
Погода в La Quiaca (Аргентина) (177 км)
Погода в Tarija (Боливия) (182 км)
Погода в Salta (Аргентина) (223 км)
Погода в Villamontes (Боливия) (229 км)
Погода в Prats-Gil (Парагвай) (292 км)
Погода в Camiri (Боливия) (360 км)

Пояснения к столбцам:

Ветер - указаны скорость ветра в м/с - средняя за 10 мин, порывы в срок и между сроками (в фигурных скобках) и направление, откуда дует ветер: С - северный, СВ - северо-восточный, В - восточный, ЮВ - юго-восточный, Ю - южный, ЮЗ - юго-западный, З - западный, СЗ - северо-западный.
Видимость - горизонтальная дальность видимости в метрах или километрах. При видимости от 1 до 10 км при отсутствии осадков обычно наблюдается дымка, при ухудшении видимости до 1 км и менее - туман. В сухую погоду видимость может ухудшаться дымом, пылью или мглою.
Явления - указаны атмосферные явления, наблюдавшиеся в срок или в последний час перед сроком; фигурными скобками обозначены явления, наблюдавшиеся между сроками (за 1-3 часа до срока); квадратными скобками обозначены град или гололедные отложения с указанием их диаметра в мм.
Облачность - указаны через наклонную черту общая и нижняя облачность в баллах и высота нижней границы облаков в метрах; квадратными скобками обозначены формы облаков: Ci - перистые, Cs - перисто-слоистые, Cc - перисто-кучевые, Ac - высококучевые, As - высокослоистые, Sc - слоисто-кучевые, Ns - слоисто-дождевые, Cu - кучевые, Cb - кучево-дождевые. Подробнее классификацию облаков см. в Атласе облаков (PDF).
T - Температура воздуха - температура, измеренная на высоте 2 м над землей.
Td - Температура точки росы - температура, при понижении до которой содержащийся в воздухе водяной пар достигнет насыщения.
f - Относительная влажность воздуха - влажноcть воздуха, измеренная на высоте 2 м над землей.
Te - Эффективная температура - температура, которую ощущает одетый по сезону человек в тени. Характеристика душности погоды. При расчете учитывается влияние влажности воздуха и скорости ветра на теплоощущения человека.
Tes - Эффективная температура на солнце - температура, которую ощущает человек, с поправкой на солнечный нагрев. Характеристика знойности погоды. Зависит от высоты солнца над горизонтом, облачности и скорости ветра. Ночью, в пасмурную погоду, а также при ветре 12 м/с и более поправка равна нулю.
P - Атмосферное давление - приведенное к уровню моря атмосферное давление.
Po - Атмосферное давление - измеренное на уровне метеостанции атмосферное давление.
Tmin - Минимальная температура - минимум температуры воздуха на высоте 2 м над землей.
Tmax - Максимальная температура - максимум температуры воздуха на высоте 2 м над землей.
R - Количество осадков - Количество выпавших осадков за период времени, мм. При наведении курсора мыши на число - период времени, за который выпало указанное количество осадков.
R24 - Количество осадков - Количество выпавших осадков за 24 часа, мм.
S - Снежный покров - Высота снежного покрова, см. При наведении курсора мыши на число - состояние снежного покрова и степень покрытия местности в баллах.